[[{"header":{"parameterUnit":"m.s-1","parameterCategory":1,"la1":30.2991,"la2":30.254,"lo1":-89.0895,"lo2":-89.0444,"dy":0.0017,"dx":0.0017,"nx":28,"ny":28,"refTime":"2026-01-09T03:00:00:Z","depth":0,"parameterNumber":2,"parameterNumberName":"U-component_of_WINDS"},"data":[0,0,0,0,0,0,0,0,0,0,0,0,0,0,0,0,0,0,0,0,0,0,0,0,0,0,0,0,0,0,0,0,0,0,0,0,0,0,0,0,0,0,0,0,0,0,0,0,0,0,0,0,0,0,0,0,0,0,-2.3991,-2.3992,0,-2.4105,-2.4106,-2.4108,-2.4143,-2.4142,-2.4142,-2.4141,-2.426,-2.4264,-2.4268,0,0,0,0,0,0,0,0,0,0,0,0,0,-2.3807,-2.381,-2.3991,-2.3992,-2.3994,-2.4105,-2.4107,-2.4108,-2.4143,-2.4142,-2.4142,-2.4141,-2.4259,-2.4263,-2.4268,0,0,0,0,0,0,0,0,0,0,0,0,0,-2.3901,-2.3811,-2.3991,-2.4025,-2.4029,-2.4105,-2.4107,-2.4108,-2.4143,-2.4142,-2.4141,-2.4141,-2.4258,-2.4263,-2.4269,-2.432,0,0,-2.4285,-2.4288,0,0,0,0,0,0,0,0,-2.3895,-2.3907,-2.4018,-2.4022,-2.4027,-2.4109,-2.4085,-2.4179,-2.4143,-2.41,-2.4141,-2.414,-2.4211,-2.422,-2.4243,-2.4325,-2.433,-2.4286,-2.4289,-2.4292,-2.4293,0,0,0,0,0,0,0,-2.3889,-2.3903,-2.4036,-2.402,-2.4025,-2.4035,-2.4048,-2.4103,-2.4159,-2.4103,-2.4106,-2.4119,-2.4213,-2.4238,-2.4247,-2.4332,-2.4286,-2.4291,-2.4294,-2.4296,-2.4463,-2.4464,0,0,0,0,0,0,-2.3876,-2.3897,-2.4033,-2.404,-2.3958,-2.4039,-2.4053,-2.4084,-2.4158,-2.4169,-2.412,-2.412,-2.4229,-2.424,-2.4251,-2.4316,-2.4292,-2.4297,-2.43,-2.4462,-2.4463,-2.4464,0,0,0,0,0,0,-2.3872,-2.3888,-2.4028,-2.3969,-2.3988,-2.4043,-2.4077,-2.4086,-2.4111,-2.417,-2.4181,-2.4135,-2.4229,-2.4243,-2.4302,-2.432,-2.4299,-2.4304,-2.446,-2.4462,-2.4464,-2.4446,0,0,0,0,0,0,-2.3866,-2.3886,-2.3905,-2.3969,-2.3991,-2.4076,-2.4078,-2.4089,-2.412,-2.4122,-2.4187,-2.4197,-2.4229,-2.4294,-2.4308,-2.4328,-2.4309,-2.4459,-2.4461,-2.4463,-2.4445,-2.4446,-2.4448,0,0,0,0,0,-2.386,-2.3896,-2.3906,-2.3922,-2.4016,-2.4077,-2.409,-2.4125,-2.4122,-2.4142,-2.418,-2.4195,-2.4316,-2.43,-2.4316,-2.4337,-2.4458,-2.4461,-2.4463,-2.4444,-2.4446,-2.4448,0,0,0,0,0,0,-2.3833,-2.3905,-2.3917,-2.3974,-2.4019,-2.4083,-2.4109,-2.4126,-2.4173,-2.4173,-2.4216,-2.423,-2.4287,-2.4318,-2.4298,-2.4391,-2.4388,-2.4394,-2.4368,-2.437,-2.4372,-2.4363,-2.4313,0,0,0,0,0,-2.3834,-2.3877,-2.3938,-2.3983,-2.4005,-2.4053,-2.4082,-2.4105,-2.4154,-2.4173,-2.4216,-2.4263,-2.4312,-2.4343,-2.4392,-2.445,-2.4465,-2.4473,-2.4475,-2.4476,-2.448,-2.4514,-2.4518,-2.4472,-2.4472,-2.4472,0,0,-2.3836,-2.388,-2.3905,-2.3979,-2.4016,-2.4061,-2.4069,-2.4116,-2.415,-2.4181,-2.4238,-2.4272,-2.4328,-2.4387,-2.4415,-2.4415,-2.4496,-2.4479,-2.4479,-2.4483,-2.4517,-2.4521,-2.4525,-2.4474,-2.4474,-2.4473,0,0,-2.3862,-2.39,-2.3942,-2.3979,-2.4036,-2.4068,-2.4078,-2.414,-2.4163,-2.4222,-2.4246,-2.4288,-2.4371,-2.441,-2.4441,-2.4484,-2.4499,-2.4498,-2.4506,-2.4538,-2.4542,-2.4545,-2.456,-2.4565,-2.4503,-2.4503,-2.4503,0,-2.3857,-2.3924,-2.3961,-2.4007,-2.4039,-2.4069,-2.4112,-2.4147,-2.4217,-2.4239,-2.4238,-2.4343,-2.4383,-2.4452,-2.4463,-2.4487,-2.45,-2.449,-2.4538,-2.4542,-2.4546,-2.456,-2.4566,-2.4502,-2.4502,-2.4502,-2.4502,0,-2.3916,-2.3962,-2.399,-2.4055,-2.4091,-2.4135,-2.418,-2.4212,-2.4233,-2.4265,-2.4326,-2.4375,-2.4434,-2.4452,-2.4473,-2.4525,-2.4523,-2.4529,-2.4527,-2.4549,-2.4563,-2.4569,-2.4501,-2.4501,-2.4502,-2.4502,0,0,-2.3926,-2.4013,-2.4022,-2.4053,-2.4118,-2.4156,-2.4202,-2.4259,-2.4285,-2.4334,-2.4374,-2.4444,-2.4451,-2.4486,-2.4512,-2.4541,-2.4571,-2.4544,-2.4546,-2.4547,-2.4631,-2.4625,-2.4631,-2.4583,-2.4584,-2.4585,-2.4626,0,-2.396,-2.4043,-2.4078,-2.4145,-2.4189,-2.4218,-2.4259,-2.4304,-2.4337,-2.438,-2.4416,-2.4465,-2.4471,-2.4492,-2.4522,-2.4561,-2.4589,-2.4559,-2.4621,-2.4623,-2.4605,-2.4638,-2.4632,-2.4668,-2.4632,-2.4633,-2.4634,0,-2.401,-2.4057,-2.4128,-2.4189,-2.4209,-2.4244,-2.43,-2.434,-2.4393,-2.4415,-2.4454,-2.4479,-2.4531,-2.4526,-2.4597,-2.4576,-2.4604,-2.4628,-2.463,-2.4636,-2.4629,-2.4645,-2.468,-2.4685,-2.4644,-2.4643,-2.4642,0,-2.401,-2.4092,-2.4145,-2.417,-2.4243,-2.4267,-2.4299,-2.435,-2.4383,-2.4432,-2.4454,-2.4509,-2.4538,-2.4581,-2.4621,-2.4613,-2.4689,-2.4687,-2.4708,-2.4707,-2.4722,-2.472,-2.4761,-2.4741,-2.4741,-2.4741,-2.4741,0,-2.4043,-2.4085,-2.4145,-2.4178,-2.4226,-2.4268,-2.4315,-2.4349,-2.4395,-2.4436,-2.4466,-2.4503,-2.4554,-2.4599,-2.463,-2.4685,-2.4698,-2.4718,-2.4726,-2.4714,-2.4712,-2.4732,-2.4731,-2.4743,-2.4742,-2.4742,-2.4742,0,-2.405,-2.4092,-2.4152,-2.4216,-2.4233,-2.4266,-2.4322,-2.4355,-2.4389,-2.444,-2.4455,-2.4509,-2.4563,-2.4607,-2.4679,-2.47,-2.4757,-2.4766,-2.4738,-2.4742,-2.4761,-2.4758,-2.4816,-2.4826,-2.48,-2.48,-2.48,0,-2.4068,-2.4101,-2.4169,-2.4197,-2.4228,-2.4275,-2.4308,-2.4351,-2.4384,-2.4447,-2.4473,-2.4529,-2.4576,-2.4662,-2.4708,-2.4763,-2.4774,-2.479,-2.4782,-2.477,-2.4773,-2.477,-2.4774,-2.479,-2.479,-2.479,-2.479,0,-2.4095,-2.4115,-2.416,-2.4214,-2.4252,-2.4297,-2.4342,-2.4365,-2.4416,-2.4452,-2.4508,-2.4544,-2.4617,-2.4672,-2.4732,-2.4767,-2.4787,-2.4793,-2.4801,-2.4789,-2.4771,-2.4781,-2.4739,-2.4791,-2.4791,-2.4791,-2.4791,-2.4791,-2.4108,-2.4139,-2.4191,-2.4241,-2.428,-2.4322,-2.4356,-2.4395,-2.4442,-2.4503,-2.4526,-2.4583,-2.4637,-2.4719,-2.4754,-2.48,-2.4802,-2.4813,-2.4816,-2.4818,-2.4816,-2.4765,-2.4811,-2.4811,-2.4811,-2.4811,-2.4811,0,-2.4136,-2.4171,-2.4217,-2.4279,-2.4319,-2.4335,-2.4387,-2.442,-2.4469,-2.4516,-2.4562,-2.4626,-2.4681,-2.4732,-2.4789,-2.4816,-2.4827,-2.483,-2.4828,-2.4835,-2.4811,-2.4798,-2.482,-2.482,-2.482,-2.482,-2.482,-2.482,-2.4155,-2.4208,-2.4233,-2.4306,-2.4342,-2.4397,-2.4425,-2.4464,-2.4503,-2.4572,-2.4617,-2.465,-2.47,-2.4761,-2.4813,-2.4827,-2.4846,-2.4846,-2.4862,-2.4838,-2.4837,-2.4835,-2.4823,-2.485,-2.485,-2.4882,-2.4882,-2.4883]},{"header":{"parameterUnit":"m.s-1","parameterCategory":1,"la1":30.2991,"la2":30.254,"lo1":-89.0895,"lo2":-89.0444,"dy":0.0017,"dx":0.0017,"nx":28,"ny":28,"refTime":"2026-01-09T03:00:00:Z","depth":0,"parameterNumber":3,"parameterNumberName":"V-component_of_WINDS"},"data":[0,0,0,0,0,0,0,0,0,0,0,0,0,0,0,0,0,0,0,0,0,0,0,0,0,0,0,0,0,0,0,0,0,0,0,0,0,0,0,0,0,0,0,0,0,0,0,0,0,0,0,0,0,0,0,0,0,0,4.3138,4.3139,0,4.3246,4.3247,4.3248,4.3257,4.3256,4.3255,4.3254,4.3362,4.3366,4.337,0,0,0,0,0,0,0,0,0,0,0,0,0,4.294,4.2943,4.3138,4.3139,4.314,4.3245,4.3247,4.3248,4.3257,4.3256,4.3255,4.3253,4.3361,4.3366,4.3371,0,0,0,0,0,0,0,0,0,0,0,0,0,4.3034,4.2945,4.3137,4.3158,4.316,4.3245,4.3247,4.3249,4.3258,4.3256,4.3254,4.3253,4.336,4.3365,4.3371,4.3443,0,0,4.3389,4.3392,0,0,0,0,0,0,0,0,4.3029,4.3042,4.3153,4.3156,4.316,4.3236,4.3217,4.3314,4.3258,4.3221,4.3254,4.3252,4.3322,4.3331,4.3355,4.3448,4.3452,4.339,4.3394,4.3396,4.3398,0,0,0,0,0,0,0,4.3022,4.3037,4.318,4.3155,4.3159,4.3161,4.3173,4.3235,4.328,4.3224,4.3225,4.3238,4.3323,4.3349,4.3357,4.3454,4.339,4.3395,4.3399,4.3401,4.3615,4.3617,0,0,0,0,0,0,4.3012,4.3032,4.3177,4.3184,4.3089,4.3166,4.3179,4.3213,4.3279,4.3287,4.3239,4.3238,4.334,4.335,4.3361,4.3452,4.3396,4.3402,4.3405,4.3613,4.3616,4.3618,0,0,0,0,0,0,4.3008,4.3025,4.3173,4.3108,4.3127,4.3172,4.321,4.3216,4.3242,4.329,4.3298,4.3257,4.3339,4.3353,4.3423,4.3456,4.3404,4.341,4.361,4.3614,4.3617,4.3633,0,0,0,0,0,0,4.3002,4.3023,4.3051,4.3109,4.313,4.3233,4.3212,4.322,4.3253,4.3252,4.331,4.3317,4.3338,4.3414,4.3429,4.3463,4.3414,4.3608,4.3612,4.3616,4.363,4.3636,4.3642,0,0,0,0,0,4.2995,4.305,4.3052,4.307,4.3166,4.3235,4.3247,4.3271,4.3255,4.3284,4.3315,4.3316,4.345,4.3422,4.3438,4.3475,4.3606,4.3611,4.3615,4.3627,4.3635,4.3642,0,0,0,0,0,0,4.2993,4.3057,4.3061,4.3136,4.318,4.3236,4.3272,4.3278,4.3327,4.3324,4.335,4.3363,4.3434,4.3461,4.3429,4.3549,4.3526,4.3534,4.3529,4.3537,4.3543,4.3536,4.3419,0,0,0,0,0,4.3002,4.3053,4.3106,4.3167,4.3189,4.3227,4.3258,4.3273,4.3319,4.3338,4.3374,4.3419,4.3472,4.3505,4.3556,4.3633,4.3647,4.3666,4.3672,4.3677,4.3685,4.3731,4.3741,4.3633,4.3633,4.3633,0,0,4.3019,4.3061,4.3091,4.3168,4.3204,4.3257,4.3243,4.3298,4.3339,4.3346,4.3416,4.3444,4.3496,4.3571,4.3606,4.3596,4.3718,4.3683,4.3687,4.3692,4.3737,4.3747,4.3756,4.3637,4.3636,4.3636,0,0,4.3079,4.3115,4.3171,4.3208,4.3264,4.3289,4.3303,4.3359,4.3379,4.345,4.3457,4.3505,4.3594,4.3632,4.3663,4.3741,4.3744,4.3756,4.3789,4.3833,4.3842,4.385,4.388,4.3891,4.3763,4.3763,4.3763,0,4.3094,4.3175,4.3199,4.3257,4.3291,4.3302,4.3361,4.3395,4.3463,4.3487,4.3475,4.359,4.3625,4.3711,4.373,4.3754,4.3772,4.375,4.3839,4.3847,4.3854,4.3884,4.3895,4.3764,4.3764,4.3764,4.3764,0,4.3192,4.3248,4.3287,4.3356,4.3394,4.3451,4.3486,4.3522,4.3534,4.3561,4.3634,4.3677,4.3739,4.376,4.377,4.3848,4.3841,4.3833,4.3811,4.3866,4.3894,4.3905,4.3766,4.3766,4.3765,4.3765,0,0,4.3254,4.3337,4.3351,4.3384,4.3447,4.3491,4.3549,4.3611,4.3643,4.369,4.3741,4.3818,4.3812,4.3847,4.3863,4.3902,4.3965,4.389,4.3892,4.3905,4.4057,4.4064,4.4077,4.3967,4.3969,4.3971,4.4054,0,4.3323,4.3429,4.3454,4.3545,4.3599,4.3611,4.3662,4.3707,4.3734,4.3783,4.3813,4.3868,4.3855,4.3877,4.3916,4.3949,4.3996,4.3943,4.4017,4.4019,4.4006,4.4091,4.4098,4.4174,4.4065,4.4066,4.4068,0,4.3418,4.347,4.3567,4.3627,4.365,4.3696,4.3756,4.3802,4.3854,4.3871,4.3912,4.3925,4.3987,4.3961,4.4049,4.4013,4.4044,4.4065,4.4069,4.4078,4.4048,4.4106,4.4199,4.4211,4.4085,4.4084,4.4082,0,4.3457,4.3551,4.3622,4.3649,4.3719,4.3752,4.3783,4.3833,4.3869,4.3921,4.3946,4.4004,4.4036,4.4081,4.411,4.4087,4.4197,4.4172,4.4214,4.4214,4.4238,4.4237,4.434,4.4254,4.4254,4.4254,4.4253,0,4.3534,4.3593,4.3642,4.3685,4.3753,4.3782,4.3848,4.3879,4.3924,4.3974,4.3987,4.4034,4.4068,4.412,4.4142,4.4214,4.4227,4.4244,4.425,4.4245,4.4243,4.4267,4.4264,4.4257,4.4256,4.4255,4.4255,0,4.359,4.3624,4.3703,4.3764,4.378,4.3828,4.388,4.3924,4.3952,4.4016,4.4033,4.4077,4.414,4.4172,4.4249,4.4265,4.4346,4.4347,4.4329,4.4332,4.4374,4.4371,4.4499,4.4519,4.4417,4.4418,4.4418,0,4.3637,4.3684,4.3751,4.3786,4.3818,4.3875,4.3913,4.3943,4.3982,4.4047,4.4083,4.4147,4.42,4.4299,4.4338,4.4398,4.4403,4.4444,4.4412,4.4406,4.4407,4.4405,4.4412,4.445,4.4451,4.4451,4.4452,0,4.372,4.3735,4.379,4.3852,4.3898,4.3947,4.3996,4.4024,4.4063,4.4106,4.4172,4.4213,4.4294,4.4357,4.4421,4.4453,4.446,4.4462,4.4475,4.4472,4.4461,4.4471,4.4348,4.4459,4.4458,4.4458,4.4457,4.4457,4.3775,4.3819,4.3873,4.3935,4.3976,4.4022,4.4067,4.4102,4.4157,4.4226,4.424,4.431,4.4363,4.445,4.4484,4.4539,4.4531,4.4549,4.4555,4.456,4.4563,4.445,4.455,4.455,4.455,4.455,4.455,0,4.3861,4.3897,4.3954,4.4024,4.4073,4.4075,4.4131,4.4172,4.4233,4.4282,4.4335,4.4411,4.4474,4.4519,4.4583,4.4619,4.4624,4.4635,4.4634,4.4642,4.4565,4.4549,4.463,4.463,4.463,4.463,4.463,4.463,4.3912,4.3987,4.4009,4.4105,4.414,4.421,4.4242,4.4285,4.4325,4.4411,4.4464,4.4493,4.4541,4.4609,4.4668,4.4679,4.4703,4.4715,4.4727,4.4655,4.4647,4.4639,4.4624,4.4719,4.4719,4.4799,4.48,4.4801]}]]